Погода в Енанджауне

Мьянма     20°27′33″N   94°53′02″E
темп.,
°C
ветер,
м/с
пор.,
м/с
влажн.,
%
обл.,
%
осадки,
мм/ч
давл.,
гПа
погр.,
м
23 января, сб
сб2300:30+18зсз22620 0.0 101124
03:30+17ссз12670 0.0 101023
06:30+16ссз127012 0.0 101123
09:30+22сз11520 0.0 1013439
12:30+28сз12330 0.0 10111752
15:30+29ююз44300 0.0 10091723
18:30+23в23410 0.0 101023
21:30+21юз22440 0.0 101223
24 января, вс
вс2400:30+17з11390 0.0 101223
03:30+18ссз01620 0.0 101123
06:30+16сз11660 0.0 101223
09:30+21з11410 0.0 1014313
12:30+27ююз222911 0.0 1012994
15:30+29ю33240 0.0 10091231
18:30+25юв23380 0.0 101024
21:30+22в12360 0.0 101323
25 января, пн
пн2500:30+19ю01460 0.0 101223
03:30+17в11530 0.0 101223
06:30+16ссв01630 0.0 101323
09:30+23ссз224032 0.0 1015418
12:30+29сз22310 0.0 10121190
15:30+31зюз12240 0.0 10091713
18:30+24ююз11330 0.0 101024
21:30+22ссз12400 0.0 101223
26 января, вт
вт2600:30+19в01490 0.0 101223
03:30+18ссз01560 0.0 101123
06:30+16с11610 0.0 101223
09:30+24ссз33420 0.0 1014381
12:30+29сз22290 0.0 10111343
15:30+31з22220 0.0 10081757
18:30+25ссз12330 0.0 100924
21:30+22св23430 0.0 101226
27 января, ср
ср2700:30+19в01510 0.0 101123
03:30+18с11550 0.0 101123
06:30+17ссз12600 0.0 101223
09:30+24сз22400 0.0 1014361
12:30+30ссз322712 0.0 10111406
15:30+32з12190 0.0 10091659
18:30+25ссз11290 0.0 100924
21:30+23св33380 0.0 101230